Regional Weather Roundup
Issued by NWS

Home | Current Version | Previous Version | Graphics & Text | Print | Product List | Glossary On
Versions: 1 2 3 4 5 6 7 8 9 10 11 12 13 14 15 16 17 18 19 20 21 22 23 24 25 26 27 28 29 30 31 32 33 34 35 36 37 38 39 40 41 42 43 44 45 46 47 48 49 50
000
ASUS45 KPSR 291310
RWRAZ

ARIZONA REGIONAL HOURLY WEATHER ROUNDUP
NATIONAL WEATHER SERVICE PHOENIX AZ
600 AM MST SUN MAR 29 2015

NOTE: FAIR INDICATES FEW OR NO CLOUDS BELOW 12,000 FEET WITH NO
SIGNIFICANT WEATHER AND/OR OBSTRUCTIONS TO VISIBILITY.

AZZ001>003-036-291400-
NORTHWEST ARIZONA

CITY           SKY/WX    TMP DP  RH WIND       PRES   REMARKS
BULLHEAD CITY  CLEAR     64  25  22 SE3       29.99R
KINGMAN        CLEAR     55  21  26 S3        30.11R
$$

AZZ004>008-015-016-018-291400-
NORTH CENTRAL ARIZONA

CITY           SKY/WX    TMP DP  RH WIND       PRES   REMARKS
GRAND CANYON   CLEAR     26  19  74 E3        30.30R
WILLIAMS       CLEAR     32  21  64 S9        30.36R WCI  24
PRESCOTT       CLEAR     44  22  41 W3        30.22R
FLAGSTAFF      CLEAR     35  20  54 SW3       30.31R
PAYSON         CLEAR     50  21  32 CALM      30.23S
PAGE           CLEAR     55  21  26 VRB3      30.17R
$$

AZZ009>014-017-291400-
NORTHEAST ARIZONA

CITY           SKY/WX    TMP DP  RH WIND       PRES   REMARKS
WINSLOW        CLEAR     40  20  44 E5        30.24R
SAINT JOHNS    PTCLDY    42  10  27 S8        30.26R
WINDOW ROCK    CLEAR     32  16  51 CALM      30.30R
SHOW LOW       PTCLDY    37  10  32 SE5       30.32R WCI  34
$$

AZZ023-291400-
GREATER PHOENIX AREA

CITY           SKY/WX    TMP DP  RH WIND       PRES   REMARKS
PHOENIX        MOCLDY    66  30  26 E5        29.99R
BUCKEYE        MOCLDY    54  30  40 N3        30.00R
LUKE AFB       PTCLDY    60  39  45 N7        29.99R
DEER VALLEY    CLEAR     62  30  29 CALM      30.01R
SCOTTSDALE     CLEAR     60  40  47 CALM      30.02R
MESA-FALCON    PTCLDY    64  28  25 N6          N/A
MESA-GATEWAY   PTCLDY    57  21  24 E7        30.03R
CHANDLER       PTCLDY    59  32  36 CALM      30.02
$$

AZZ027-028-291400-
SOUTHWEST MARICOPA COUNTY AND PINAL COUNTY

CITY           SKY/WX    TMP DP  RH WIND       PRES   REMARKS
CASA GRANDE    PTCLDY    57  27  30 CALM      30.01R
GILA BEND      FAIR      64  20  18 SE5       29.97R
$$

AZZ503-504-507>509-291400-
SOUTHEAST ARIZONA

CITY           SKY/WX    TMP DP  RH WIND       PRES   REMARKS
TUCSON         PTCLDY    60  25  26 SE10      30.10R
DAVIS-MONTHAN  MOCLDY    58  26  28 SE9       30.09R
RYAN FIELD       N/A     57  32  38 SE6       30.09
NOGALES        PTCLDY    49  25  39 E5        30.17R
SIERRA VISTA   PTCLDY    61  17  18 SW10      30.21R
DOUGLAS        PTCLDY    48  24  39 CALM      30.19R
SAFFORD        CLEAR     47  20  34 CALM      30.12R
$$

AZZ020-021-025-026-031-291400-
SOUTHWEST ARIZONA

CITY           SKY/WX    TMP DP  RH WIND       PRES   REMARKS
YUMA           MOCLDY    68  40  35 N7        29.92S
$$

CAZ031-033-041-043-047-048-061-291400-
SOUTHERN CALIFORNIA

CITY           SKY/WX    TMP DP  RH WIND       PRES   REMARKS
DOWNTOWN L.A.  FOG       57  57 100 CALM      30.04R VSB 1/4
L.A. AIRPORT   FOG       56  56 100 CALM      30.05R VSB 1/2
SAN DIEGO      CLOUDY    62  57  83 W5        30.05R
BURBANK        CLEAR     57  42  57 CALM      30.03R
ONTARIO        MOCLDY    57  41  55 CALM      30.04R
RIVERSIDE      CLEAR     56  41  57 CALM      30.05R
PALM SPRINGS   PTCLDY    74  28  18 NW7       29.96R
EL CENTRO NAS  MOCLDY    67  25  20 CALM      29.91R
IMPERIAL       MOCLDY    66  33  29 SW5       29.91R
BLYTHE         MOCLDY    64  33  31 N7        29.95R
NEEDLES        CLEAR     64  24  21 NW6       29.98R
$$

NVZ020-UTZ003-291400-
SOUTHERN NEVADA-UTAH

CITY           SKY/WX    TMP DP  RH WIND       PRES   REMARKS
LAS VEGAS      CLEAR     63  21  20 SW8       30.03R
SALT LAKE CITY CLEAR     40  25  55 CALM      30.30R
$$

NMZ009-TXZ055-291400-
NEW MEXICO-WEST TEXAS

CITY           SKY/WX    TMP DP  RH WIND       PRES   REMARKS
ALBUQUERQUE    CLEAR     49  14  24 SE6       30.22R
EL PASO        CLEAR     53  14  21 E5        30.14R
$$


........................KEY........................
SKY/WX - SKY CONDITION/WEATHER
TMP    - TEMPERATURE IN FAHRENHEIT
DP     - DEW POINT IN FAHRENHEIT
RH     - RELATIVE HUMIDITY IN PERCENT
WIND   - DIRECTION AND SPEED IN MILES PER HOUR (MPH)
VRB    - VARIABLE WIND DIRECTION
PRES   - MEAN SEA LEVEL PRESSURE IN INCHES OF MERCURY
         F - FALLING PRESSURE   R - RISING PRESSURE
         S - STEADY PRESSURE
VSB    - VISIBILITY IN MILES
HX     - HEAT INDEX IN FAHRENHEIT
WCI    - WIND CHILL INDEX IN FAHRENHEIT
TC     - TEMPERATURE IN CELSIUS WHICH IS ALSO KNOWN AS
         TEMPERATURE IN CENTIGRADE
AFB    - AIR FORCE BASE
         LUKE AFB IS LUKE AIR FORCE BASE
         DAVIS-MONTHAN IS DAVIS-MONTHAN AIR FORCE BASE
NAS    - NAVAL AIR STATION
         EL CENTRO NAS IS EL CENTRO NAVAL AIR STATION
N/A    - NOT AVAILABLE




USA.gov is the U.S. government's official web portal to all federal, state and local government web resources and services.